| time (UTC) | temp F | wind direction | speed MPH | gust MPH | rain 1hr in | rain 24hr in | rain mn in | humidity % | barometer mb |
| 20260505080143 | 61 | 201 | 13.0 | 20.0 | 0.00 | 0.00 | 0.00 | 100 | |
| 20260505075743 | 61 | 202 | 11.0 | 16.0 | 0.00 | 0.00 | 0.00 | 100 | |
| 20260505075343 | 61 | 197 | 14.0 | 21.0 | 0.00 | 0.00 | 0.00 | 100 | |
| 20260505074943 | 61 | 202 | 16.0 | 26.0 | 0.00 | 0.00 | 0.00 | 100 | |
| 20260505074543 | 60 | 198 | 14.0 | 22.0 | 0.00 | 0.00 | 0.00 | 100 | |
| 20260505074141 | 60 | 207 | 15.0 | 22.0 | 0.00 | 0.00 | 0.00 | 100 | |
| 20260505073741 | 59 | 199 | 13.0 | 19.0 | 0.00 | 0.00 | 0.00 | 100 | |
| 20260505073341 | 58 | 211 | 10.0 | 21.0 | 0.00 | 0.00 | 0.00 | 100 | |
| 20260505072941 | 58 | 199 | 13.0 | 22.0 | 0.00 | 0.00 | 0.00 | 100 | |
| 20260505072540 | 58 | 205 | 11.0 | 19.0 | 0.00 | 0.00 | 0.00 | 100 | |
| 20260505072138 | 58 | 201 | 12.0 | 16.0 | 0.00 | 0.00 | 0.00 | 100 | |
| 20260505071738 | 57 | 195 | 14.0 | 22.0 | 0.00 | 0.00 | 0.00 | 100 | |
| 20260505071338 | 57 | 193 | 12.0 | 21.0 | 0.00 | 0.00 | 0.00 | 100 | |
| 20260505070938 | 57 | 196 | 13.0 | 25.0 | 0.00 | 0.00 | 0.00 | 100 | |
| 20260505070538 | 57 | 208 | 15.0 | 25.0 | 0.00 | 0.00 | 0.00 | 100 | |
| 20260505070137 | 57 | 206 | 13.0 | 23.0 | 0.00 | 0.00 | 0.00 | 100 | |
| 20260505065734 | 57 | 209 | 11.0 | 19.0 | 0.00 | 0.00 | 0.00 | 100 | |
| 20260505065335 | 57 | 204 | 13.0 | 22.0 | 0.00 | 0.00 | 0.00 | 100 | |
| 20260505064935 | 57 | 209 | 13.0 | 19.0 | 0.00 | 0.00 | 0.00 | 100 | |
| 20260505064535 | 57 | 208 | 13.0 | 18.0 | 0.00 | 0.00 | 0.00 | 100 | |
| 20260505064133 | 56 | 201 | 9.0 | 15.0 | 0.00 | 0.00 | 0.00 | 100 | |
| 20260505063732 | 56 | 198 | 12.0 | 18.0 | 0.00 | 0.00 | 0.00 | 100 | |
| 20260505063332 | 56 | 200 | 12.0 | 17.0 | 0.00 | 0.00 | 0.00 | 100 | |
| 20260505062932 | 56 | 217 | 12.0 | 19.0 | 0.00 | 0.00 | 0.00 | 100 | |
| 20260505062525 | 55 | 207 | 13.0 | 19.0 | 0.00 | 0.00 | 0.00 | 100 | |
| 20260505062122 | 55 | 201 | 11.0 | 17.0 | 0.00 | 0.00 | 0.00 | 100 | |
| 20260505061722 | 55 | 204 | 12.0 | 17.0 | 0.00 | 0.00 | 0.00 | 100 | |
| 20260505061322 | 55 | 212 | 12.0 | 18.0 | 0.00 | 0.00 | 0.00 | 100 | |
| 20260505060922 | 55 | 210 | 12.0 | 19.0 | 0.00 | 0.00 | 0.00 | 100 | |
| 20260505060522 | 55 | 216 | 10.0 | 15.0 | 0.00 | 0.00 | 0.00 | 100 | |
| 20260505060120 | 55 | 210 | 12.0 | 17.0 | 0.00 | 0.00 | 0.00 | 100 | |
| 20260505055720 | 54 | 201 | 11.0 | 17.0 | 0.00 | 0.00 | 0.00 | 100 | |
| 20260505055320 | 54 | 203 | 11.0 | 18.0 | 0.00 | 0.00 | 0.00 | 100 | |
| 20260505054920 | 54 | 205 | 11.0 | 15.0 | 0.00 | 0.00 | 0.00 | 100 | |
| 20260505054520 | 54 | 194 | 11.0 | 19.0 | 0.00 | 0.00 | 0.00 | 100 | |
| 20260505054119 | 54 | 202 | 13.0 | 18.0 | 0.00 | 0.00 | 0.00 | 100 | |
| 20260505053719 | 54 | 192 | 11.0 | 17.0 | 0.00 | 0.00 | 0.00 | 100 | |
| 20260505053319 | 53 | 198 | 13.0 | 16.0 | 0.00 | 0.00 | 0.00 | 100 | |
| 20260505052919 | 53 | 208 | 12.0 | 16.0 | 0.00 | 0.00 | 0.00 | 100 | |
| 20260505052519 | 53 | 198 | 12.0 | 19.0 | 0.00 | 0.00 | 0.00 | 100 | |
| 20260505052117 | 53 | 206 | 11.0 | 19.0 | 0.00 | 0.00 | 0.00 | 100 | |
| 20260505051717 | 53 | 213 | 11.0 | 16.0 | 0.00 | 0.00 | 0.00 | 100 | |
| 20260505051317 | 53 | 210 | 12.0 | 17.0 | 0.00 | 0.00 | 0.00 | 100 | |
| 20260505050917 | 53 | 209 | 12.0 | 17.0 | 0.00 | 0.00 | 0.00 | 100 | |
| 20260505050517 | 53 | 198 | 12.0 | 15.0 | 0.00 | 0.00 | 0.00 | 100 | |
| 20260505050115 | 53 | 207 | 12.0 | 17.0 | 0.00 | 0.00 | 0.00 | 100 | |
| 20260505041710 | 52 | 193 | 12.0 | 16.0 | 0.00 | 0.00 | 0.00 | 100 | |
| 20260505041310 | 52 | 212 | 12.0 | 18.0 | 0.00 | 0.00 | 0.00 | 100 | |
| 20260505040910 | 52 | 197 | 11.0 | 16.0 | 0.00 | 0.00 | 0.00 | 100 | |
| 20260505040510 | 52 | 202 | 11.0 | 14.0 | 0.00 | 0.00 | 0.00 | 100 | |
| 20260505040108 | 53 | 207 | 10.0 | 15.0 | 0.00 | 0.00 | 0.00 | 100 | |
| 20260505035708 | 53 | 188 | 10.0 | 16.0 | 0.00 | 0.00 | 0.00 | 100 | |
| 20260505035308 | 53 | 194 | 12.0 | 15.0 | 0.00 | 0.00 | 0.00 | 100 | |
| 20260505034859 | 53 | 203 | 11.0 | 15.0 | 0.00 | 0.00 | 0.00 | 100 | |
| 20260505034459 | 53 | 203 | 9.0 | 14.0 | 0.00 | 0.00 | 0.00 | 100 | |
| 20260505034057 | 53 | 191 | 11.0 | 17.0 | 0.00 | 0.00 | 0.00 | 100 | |
| 20260505033657 | 53 | 196 | 10.0 | 12.0 | 0.00 | 0.00 | 0.00 | 100 | |
| 20260505033257 | 53 | 190 | 10.0 | 14.0 | 0.00 | 0.00 | 0.00 | 100 | |
| 20260505032857 | 53 | 205 | 10.0 | 14.0 | 0.00 | 0.00 | 0.00 | 100 | |
| 20260505032457 | 53 | 207 | 11.0 | 15.0 | 0.00 | 0.00 | 0.00 | 100 | |
| 20260505032056 | 53 | 194 | 11.0 | 17.0 | 0.00 | 0.00 | 0.00 | 100 | |
| 20260505031655 | 53 | 206 | 12.0 | 17.0 | 0.00 | 0.00 | 0.00 | 100 | |
| 20260505031255 | 53 | 192 | 12.0 | 17.0 | 0.00 | 0.00 | 0.00 | 100 | |
| 20260505030855 | 53 | 186 | 12.0 | 18.0 | 0.00 | 0.00 | 0.00 | 100 | |
| 20260505030455 | 53 | 198 | 11.0 | 19.0 | 0.00 | 0.00 | 0.00 | 100 | |
| 20260505030053 | 53 | 194 | 12.0 | 20.0 | 0.00 | 0.00 | 0.00 | 100 | |
| 20260505025653 | 54 | 202 | 12.0 | 16.0 | 0.00 | 0.00 | 0.00 | 100 | |
| 20260505025253 | 54 | 189 | 14.0 | 17.0 | 0.00 | 0.00 | 0.00 | 100 | |
| 20260505024851 | 53 | 182 | 11.0 | 16.0 | 0.00 | 0.00 | 0.00 | 100 | |
| 20260505024451 | 53 | 189 | 12.0 | 16.0 | 0.00 | 0.00 | 0.00 | 100 | |
| 20260505024049 | 53 | 185 | 11.0 | 16.0 | 0.00 | 0.00 | 0.00 | 100 | |
| 20260505023649 | 53 | 181 | 12.0 | 17.0 | 0.00 | 0.00 | 0.00 | 100 | |
| 20260505023249 | 53 | 173 | 11.0 | 15.0 | 0.00 | 0.00 | 0.00 | 100 | |
| 20260505022849 | 53 | 195 | 12.0 | 19.0 | 0.00 | 0.00 | 0.00 | 100 | |
| 20260505022449 | 53 | 191 | 12.0 | 15.0 | 0.00 | 0.00 | 0.00 | 100 | |
| 20260505022047 | 53 | 194 | 13.0 | 19.0 | 0.00 | 0.00 | 0.00 | 100 | |
| 20260505021647 | 53 | 181 | 13.0 | 19.0 | 0.00 | 0.00 | 0.00 | 100 | |
| 20260505021247 | 53 | 175 | 11.0 | 15.0 | 0.00 | 0.00 | 0.00 | 100 | |
| 20260505020847 | 53 | 192 | 12.0 | 15.0 | 0.00 | 0.00 | 0.00 | 100 | |
| 20260505020447 | 53 | 192 | 12.0 | 19.0 | 0.00 | 0.00 | 0.00 | 100 | |
| 20260505020048 | 53 | 196 | 11.0 | 14.0 | 0.00 | 0.00 | 0.00 | 100 | |
| 20260505015644 | 53 | 201 | 12.0 | 20.0 | 0.00 | 0.00 | 0.00 | 100 | |
| 20260505015244 | 53 | 199 | 12.0 | 18.0 | 0.00 | 0.00 | 0.00 | 100 | |
| 20260505014845 | 53 | 195 | 11.0 | 17.0 | 0.00 | 0.00 | 0.00 | 100 | |
| 20260505014445 | 53 | 189 | 12.0 | 17.0 | 0.00 | 0.00 | 0.00 | 100 | |
| 20260505014043 | 53 | 184 | 11.0 | 15.0 | 0.00 | 0.00 | 0.00 | 100 | |
| 20260505013642 | 53 | 193 | 11.0 | 16.0 | 0.00 | 0.00 | 0.00 | 100 | |
| 20260505013242 | 53 | 187 | 12.0 | 18.0 | 0.00 | 0.00 | 0.00 | 100 | |
| 20260505012842 | 53 | 183 | 13.0 | 16.0 | 0.00 | 0.00 | 0.00 | 100 | |
| 20260505012442 | 53 | 181 | 11.0 | 19.0 | 0.00 | 0.00 | 0.00 | 100 | |
| 20260505012041 | 53 | 166 | 11.0 | 15.0 | 0.00 | 0.00 | 0.00 | 100 | |
| 20260505011641 | 53 | 193 | 13.0 | 23.0 | 0.00 | 0.00 | 0.00 | 100 | |
| 20260505011233 | 53 | 197 | 12.0 | 18.0 | 0.00 | 0.00 | 0.00 | 100 | |
| 20260505010833 | 53 | 186 | 13.0 | 20.0 | 0.00 | 0.00 | 0.00 | 100 | |
| 20260505010433 | 53 | 163 | 12.0 | 17.0 | 0.00 | 0.00 | 0.00 | 100 | |
| 20260505010031 | 53 | 180 | 11.0 | 17.0 | 0.00 | 0.00 | 0.00 | 100 | |
| 20260505005632 | 53 | 184 | 11.0 | 16.0 | 0.00 | 0.00 | 0.00 | 100 | |
| 20260505005231 | 53 | 183 | 11.0 | 18.0 | 0.00 | 0.00 | 0.00 | 100 | |
| 20260505004831 | 53 | 197 | 12.0 | 15.0 | 0.00 | 0.00 | 0.00 | 100 | |
| 20260505004431 | 54 | 193 | 12.0 | 16.0 | 0.00 | 0.00 | 0.00 | 100 | |
| 20260505004029 | 54 | 171 | 11.0 | 14.0 | 0.00 | 0.00 | 0.00 | 100 | |
| 20260505003629 | 54 | 182 | 13.0 | 17.0 | 0.00 | 0.00 | 0.00 | 100 | |
| 20260505003228 | 54 | 189 | 11.0 | 16.0 | 0.00 | 0.00 | 0.00 | 100 | |
| 20260505002829 | 54 | 189 | 13.0 | 21.0 | 0.00 | 0.00 | 0.00 | 100 | |
| 20260505002429 | 54 | 180 | 12.0 | 16.0 | 0.00 | 0.00 | 0.00 | 100 | |
| 20260505002027 | 55 | 204 | 12.0 | 17.0 | 0.00 | 0.00 | 0.00 | 100 | |
| 20260505001627 | 55 | 181 | 12.0 | 18.0 | 0.00 | 0.00 | 0.00 | 100 | |
| 20260505001226 | 55 | 190 | 12.0 | 17.0 | 0.00 | 0.00 | 0.00 | 100 | |
| 20260505000826 | 54 | 186 | 12.0 | 17.0 | 0.00 | 0.00 | 0.00 | 100 | |
| 20260505000428 | 54 | 186 | 12.0 | 20.0 | 0.00 | 0.00 | 0.00 | 100 | |
| 20260505000024 | 54 | 197 | 9.0 | 13.0 | 0.00 | 0.00 | 0.00 | 100 | |
| 20260504235624 | 55 | 194 | 10.0 | 15.0 | 0.00 | 0.00 | 0.00 | 100 | |
| 20260504235224 | 55 | 180 | 12.0 | 16.0 | 0.00 | 0.00 | 0.00 | 100 | |
| 20260504234824 | 55 | 193 | 10.0 | 18.0 | 0.00 | 0.00 | 0.00 | 100 | |
| 20260504234424 | 55 | 209 | 10.0 | 15.0 | 0.00 | 0.00 | 0.00 | 100 | |
| 20260504234022 | 55 | 200 | 11.0 | 15.0 | 0.00 | 0.00 | 0.00 | 100 | |
| 20260504233622 | 55 | 167 | 10.0 | 16.0 | 0.00 | 0.00 | 0.00 | 100 | |
| 20260504233222 | 55 | 203 | 10.0 | 14.0 | 0.00 | 0.00 | 0.00 | 100 | |
| 20260504232821 | 55 | 207 | 12.0 | 21.0 | 0.00 | 0.00 | 0.00 | 100 | |
| 20260504232421 | 55 | 198 | 10.0 | 17.0 | 0.00 | 0.00 | 0.00 | 100 | |
| 20260504232019 | 55 | 198 | 10.0 | 17.0 | 0.00 | 0.00 | 0.00 | 100 | |
| 20260504231620 | 55 | 197 | 10.0 | 14.0 | 0.00 | 0.00 | 0.00 | 100 | |
| 20260504231220 | 55 | 213 | 8.0 | 13.0 | 0.00 | 0.00 | 0.00 | 100 | |
| 20260504230819 | 55 | 200 | 10.0 | 16.0 | 0.00 | 0.00 | 0.00 | 100 | |
| 20260504230419 | 55 | 204 | 9.0 | 16.0 | 0.00 | 0.00 | 0.00 | 100 | |
| 20260504230017 | 55 | 196 | 8.0 | 13.0 | 0.00 | 0.00 | 0.00 | 100 | |
| 20260504225617 | 55 | 204 | 8.0 | 13.0 | 0.00 | 0.00 | 0.00 | 100 | |
| 20260504225217 | 55 | 187 | 9.0 | 12.0 | 0.00 | 0.00 | 0.00 | 100 | |
| 20260504224817 | 55 | 200 | 8.0 | 14.0 | 0.00 | 0.00 | 0.00 | 100 | |
| 20260504224417 | 55 | 183 | 8.0 | 12.0 | 0.00 | 0.00 | 0.00 | 100 | |
| 20260504224006 | 55 | 200 | 10.0 | 13.0 | 0.00 | 0.00 | 0.00 | 100 | |
| 20260504223603 | 55 | 203 | 9.0 | 14.0 | 0.00 | 0.00 | 0.00 | 100 | |
| 20260504223203 | 55 | 180 | 8.0 | 12.0 | 0.00 | 0.00 | 0.00 | 100 | |
| 20260504222803 | 55 | 203 | 10.0 | 13.0 | 0.00 | 0.00 | 0.00 | 100 | |
| 20260504222403 | 55 | 200 | 10.0 | 16.0 | 0.00 | 0.00 | 0.00 | 100 | |
| 20260504222002 | 55 | 204 | 10.0 | 13.0 | 0.00 | 0.00 | 0.00 | 100 | |
| 20260504221601 | 55 | 202 | 9.0 | 12.0 | 0.00 | 0.00 | 0.00 | 100 | |
| 20260504221201 | 55 | 200 | 9.0 | 13.0 | 0.00 | 0.00 | 0.00 | 100 | |
| 20260504220801 | 55 | 192 | 8.0 | 11.0 | 0.00 | 0.00 | 0.00 | 100 | |
| 20260504220401 | 55 | 192 | 8.0 | 12.0 | 0.00 | 0.00 | 0.00 | 100 | |
| 20260504215959 | 55 | 194 | 9.0 | 13.0 | 0.00 | 0.00 | 0.00 | 100 | |
| 20260504215558 | 55 | 204 | 8.0 | 14.0 | 0.00 | 0.00 | 0.00 | 100 | |
| 20260504215159 | 55 | 214 | 9.0 | 14.0 | 0.00 | 0.00 | 0.00 | 100 | |
| 20260504214759 | 55 | 203 | 7.0 | 11.0 | 0.00 | 0.00 | 0.00 | 100 | |
| 20260504214359 | 55 | 198 | 8.0 | 12.0 | 0.00 | 0.00 | 0.00 | 100 | |
| 20260504213957 | 56 | 205 | 8.0 | 13.0 | 0.00 | 0.00 | 0.00 | 100 | |
| 20260504213557 | 56 | 209 | 7.0 | 12.0 | 0.00 | 0.00 | 0.00 | 100 | |
| 20260504213156 | 56 | 198 | 8.0 | 13.0 | 0.00 | 0.00 | 0.00 | 100 | |
| 20260504212756 | 56 | 194 | 9.0 | 14.0 | 0.00 | 0.00 | 0.00 | 100 | |
| 20260504212356 | 56 | 213 | 8.0 | 16.0 | 0.00 | 0.00 | 0.00 | 100 | |
| 20260504211954 | 57 | 211 | 7.0 | 12.0 | 0.00 | 0.00 | 0.00 | 100 | |
| 20260504211554 | 57 | 207 | 7.0 | 11.0 | 0.00 | 0.00 | 0.00 | 100 | |
| 20260504211155 | 57 | 206 | 8.0 | 13.0 | 0.00 | 0.00 | 0.00 | 100 | |
| 20260504210755 | 57 | 203 | 10.0 | 16.0 | 0.00 | 0.00 | 0.00 | 100 | |
| 20260504210354 | 57 | 195 | 8.0 | 12.0 | 0.00 | 0.00 | 0.00 | 100 | |
| 20260504205952 | 57 | 216 | 8.0 | 11.0 | 0.00 | 0.00 | 0.00 | 100 | |
| 20260504205553 | 57 | 204 | 7.0 | 10.0 | 0.00 | 0.00 | 0.00 | 100 | |
| 20260504205152 | 57 | 213 | 9.0 | 14.0 | 0.00 | 0.00 | 0.00 | 100 | |
| 20260504204752 | 57 | 204 | 8.0 | 13.0 | 0.00 | 0.00 | 0.00 | 100 | |
| 20260504204352 | 57 | 175 | 9.0 | 14.0 | 0.00 | 0.00 | 0.00 | 100 | |
| 20260504203950 | 57 | 195 | 11.0 | 16.0 | 0.00 | 0.00 | 0.00 | 100 | |
| 20260504203550 | 57 | 185 | 8.0 | 11.0 | 0.00 | 0.00 | 0.00 | 100 | |
| 20260504203150 | 57 | 211 | 10.0 | 14.0 | 0.00 | 0.00 | 0.00 | 100 | |
| 20260504202750 | 57 | 184 | 8.0 | 12.0 | 0.00 | 0.00 | 0.00 | 100 | |
| 20260504202350 | 57 | 193 | 8.0 | 11.0 | 0.00 | 0.00 | 0.00 | 100 | |
| 20260504201948 | 57 | 207 | 7.0 | 10.0 | 0.00 | 0.00 | 0.00 | 100 | |
| 20260504201548 | 57 | 209 | 8.0 | 13.0 | 0.00 | 0.00 | 0.00 | 100 | |
| 20260504201148 | 57 | 199 | 10.0 | 14.0 | 0.00 | 0.00 | 0.00 | 100 | |
| 20260504200748 | 57 | 194 | 8.0 | 12.0 | 0.00 | 0.00 | 0.00 | 100 | |
| 20260504200341 | 57 | 201 | 7.0 | 10.0 | 0.00 | 0.00 | 0.00 | 100 | |
| 20260504195939 | 57 | 215 | 9.0 | 13.0 | 0.00 | 0.00 | 0.00 | 100 | |
| 20260504195538 | 57 | 198 | 7.0 | 10.0 | 0.00 | 0.00 | 0.00 | 100 | |
| 20260504195138 | 57 | 208 | 8.0 | 14.0 | 0.00 | 0.00 | 0.00 | 100 | |
| 20260504194739 | 58 | 210 | 8.0 | 11.0 | 0.00 | 0.00 | 0.00 | 100 | |
| 20260504194339 | 58 | 212 | 8.0 | 13.0 | 0.00 | 0.00 | 0.00 | 100 | |
| 20260504193937 | 58 | 209 | 8.0 | 12.0 | 0.00 | 0.00 | 0.00 | 100 | |
| 20260504193537 | 58 | 211 | 8.0 | 13.0 | 0.00 | 0.00 | 0.00 | 100 | |
| 20260504193137 | 58 | 191 | 9.0 | 12.0 | 0.00 | 0.00 | 0.00 | 100 | |
| 20260504192737 | 58 | 215 | 8.0 | 12.0 | 0.00 | 0.00 | 0.00 | 100 | |
| 20260504192337 | 58 | 204 | 8.0 | 12.0 | 0.00 | 0.00 | 0.00 | 100 | |
| 20260504191935 | 58 | 205 | 9.0 | 13.0 | 0.00 | 0.00 | 0.00 | 100 | |
| 20260504191535 | 58 | 206 | 8.0 | 10.0 | 0.00 | 0.00 | 0.00 | 100 | |
| 20260504191135 | 58 | 188 | 8.0 | 11.0 | 0.00 | 0.00 | 0.00 | 100 | |
| 20260504190734 | 58 | 208 | 8.0 | 13.0 | 0.00 | 0.00 | 0.00 | 100 | |
| 20260504190334 | 58 | 207 | 10.0 | 13.0 | 0.00 | 0.00 | 0.00 | 100 | |
| 20260504185932 | 58 | 182 | 9.0 | 16.0 | 0.00 | 0.00 | 0.00 | 100 | |
| 20260504185533 | 58 | 189 | 8.0 | 12.0 | 0.00 | 0.00 | 0.00 | 100 | |
| 20260504185133 | 58 | 197 | 6.0 | 9.0 | 0.00 | 0.00 | 0.00 | 100 | |
| 20260504184733 | 58 | 194 | 8.0 | 12.0 | 0.00 | 0.00 | 0.00 | 100 | |
| 20260504184333 | 58 | 195 | 6.0 | 12.0 | 0.00 | 0.00 | 0.00 | 100 | |
| 20260504183931 | 58 | 190 | 6.0 | 8.0 | 0.00 | 0.00 | 0.00 | 100 | |
| 20260504183531 | 58 | 185 | 8.0 | 10.0 | 0.00 | 0.00 | 0.00 | 100 | |
| 20260504183131 | 58 | 211 | 7.0 | 11.0 | 0.00 | 0.00 | 0.00 | 100 | |
| 20260504182729 | 58 | 193 | 8.0 | 11.0 | 0.00 | 0.00 | 0.00 | 100 | |
| 20260504182328 | 58 | 184 | 7.0 | 10.0 | 0.00 | 0.00 | 0.00 | 100 | |
| 20260504181927 | 59 | 207 | 6.0 | 10.0 | 0.00 | 0.00 | 0.00 | 100 | |
| 20260504181527 | 59 | 197 | 8.0 | 14.0 | 0.00 | 0.00 | 0.00 | 100 | |
| 20260504181127 | 59 | 176 | 10.0 | 13.0 | 0.00 | 0.00 | 0.00 | 100 | |
| 20260504180727 | 59 | 197 | 8.0 | 11.0 | 0.00 | 0.00 | 0.00 | 100 | |
| 20260504180327 | 60 | 197 | 8.0 | 11.0 | 0.00 | 0.00 | 0.00 | 100 | |
| 20260504175925 | 60 | 197 | 9.0 | 11.0 | 0.00 | 0.00 | 0.00 | 100 | |
| 20260504175525 | 60 | 185 | 10.0 | 14.0 | 0.00 | 0.00 | 0.00 | 100 | |
| 20260504175125 | 60 | 202 | 11.0 | 15.0 | 0.00 | 0.00 | 0.00 | 100 | |
| 20260504174724 | 60 | 214 | 9.0 | 16.0 | 0.00 | 0.00 | 0.00 | 100 | |
| 20260504174324 | 60 | 197 | 10.0 | 13.0 | 0.00 | 0.00 | 0.00 | 100 | |
| 20260504173922 | 61 | 191 | 11.0 | 17.0 | 0.00 | 0.00 | 0.00 | 100 | |
| 20260504173522 | 61 | 212 | 10.0 | 17.0 | 0.00 | 0.00 | 0.00 | 100 | |
| 20260504173122 | 61 | 205 | 8.0 | 12.0 | 0.00 | 0.00 | 0.00 | 100 | |
| 20260504172713 | 61 | 210 | 10.0 | 14.0 | 0.00 | 0.00 | 0.00 | 100 | |
| 20260504172313 | 61 | 219 | 10.0 | 15.0 | 0.00 | 0.00 | 0.00 | 100 | |
| 20260504171911 | 61 | 211 | 11.0 | 15.0 | 0.00 | 0.00 | 0.00 | 100 | |
| 20260504171511 | 61 | 208 | 11.0 | 16.0 | 0.00 | 0.00 | 0.00 | 100 | |
| 20260504171111 | 62 | 222 | 10.0 | 18.0 | 0.00 | 0.00 | 0.00 | 100 | |
| 20260504170711 | 62 | 211 | 8.0 | 12.0 | 0.00 | 0.00 | 0.00 | 100 | |
| 20260504170311 | 62 | 219 | 10.0 | 13.0 | 0.00 | 0.00 | 0.00 | 100 | |
| 20260504160305 | 63 | 212 | 11.0 | 16.0 | 0.00 | 0.00 | 0.00 | 100 | |
| 20260504151059 | 65 | 222 | 11.0 | 17.0 | 0.00 | 0.00 | 0.00 | 100 | |
| 20260504150659 | 65 | 240 | 9.0 | 14.0 | 0.00 | 0.00 | 0.00 | 100 | |
| 20260504150259 | 65 | 230 | 10.0 | 15.0 | 0.00 | 0.00 | 0.00 | 100 | |
| 20260504141043 | 65 | 229 | 8.0 | 14.0 | 0.00 | 0.00 | 0.00 | 100 | |
| 20260504140642 | 65 | 228 | 9.0 | 15.0 | 0.00 | 0.00 | 0.00 | 100 | |
| 20260504140243 | 65 | 232 | 10.0 | 15.0 | 0.00 | 0.00 | 0.00 | 100 | |
| 20260504130635 | 65 | 229 | 8.0 | 12.0 | 0.00 | 0.00 | 0.00 | 100 | |
| 20260504130235 | 66 | 227 | 9.0 | 14.0 | 0.00 | 0.00 | 0.00 | 100 | |
| 20260504120220 | 64 | 234 | 9.0 | 14.0 | 0.00 | 0.00 | 0.00 | 100 | |
| 20260504110612 | 65 | 231 | 8.0 | 11.0 | 0.00 | 0.00 | 0.00 | 100 | |
| 20260504110212 | 65 | 218 | 11.0 | 15.0 | 0.00 | 0.00 | 0.00 | 100 | |
| 20260504100604 | 64 | 229 | 10.0 | 15.0 | 0.00 | 0.00 | 0.00 | 100 | |
| 20260504100204 | 64 | 222 | 8.0 | 14.0 | 0.00 | 0.00 | 0.00 | 100 | |
| 20260504081745 | 57 | 206 | 13.0 | 19.0 | 0.00 | 0.00 | 0.00 | 100 | |
| 20260504081345 | 57 | 201 | 14.0 | 22.0 | 0.00 | 0.00 | 0.00 | 100 | |
| 20260504080945 | 57 | 217 | 12.0 | 19.0 | 0.00 | 0.00 | 0.00 | 100 | |
| 20260504080545 | 57 | 204 | 14.0 | 20.0 | 0.00 | 0.00 | 0.00 | 100 |